Simultaneous Nadir Overpasses (SNOs) Predictions

Prediction of SNOs between METOP-A and NOAA-19 Satellite Orbit:

Table of predicted SNOs for the next 14.0 days since TLE Epoch: 2/5/2016
Index Date (METOP-A) Time (METOP-A) Lat,Lon (METOP-A) SZA (METOP-A ) Date (NOAA-19) Time (NOAA-19) Lat,Lon (NOAA-19) SZA (NOAA-19 ) Distance(km) Time Diff (sec)
1 02/13/2016 22:13:16 -76.26, 27.52 90.50 02/13/2016 22:12:10 -76.29, 24.02 90.40 92.55 66
2 02/13/2016 23:04:07 75.77,-166.84 89.02 02/13/2016 23:03:04 75.76,-166.84 89.02 1.20 63
3 02/13/2016 23:54:49 -75.74, 0.41 91.02 02/13/2016 23:54:00 -75.74, 0.47 91.02 1.76 49
4 02/14/2016 00:45:29 75.75, 167.76 88.98 02/14/2016 00:45:06 75.74, 167.69 88.98 2.05 23
5 02/14/2016 01:36:11 -75.72, -25.00 91.06 02/14/2016 01:36:02 -75.73, -25.00 91.05 1.23 9
6 02/14/2016 02:26:51 75.73, 142.36 88.94 02/14/2016 02:27:08 75.73, 142.22 88.94 3.95 17
7 02/14/2016 03:17:33 -75.70, -50.40 91.11 02/14/2016 03:18:04 -75.72, -50.47 91.09 3.04 31
8 02/14/2016 04:08:14 75.66, 116.80 88.85 02/14/2016 04:09:09 75.68, 116.90 88.86 3.22 55
9 02/14/2016 04:58:55 -75.68, -75.80 91.15 02/14/2016 05:00:05 -75.66, -75.79 91.17 1.82 70




NCC Satellite Simultaneous Nadir Overpasses (SNOs) Prediction Service
